Location: Fishcreek Rd Observing Site
(41.1865°N, 81.4271°W)
Time: 10:15:39
(UTC-04:00)

Iridium 75 - Visible Passes

Search period start: 01 October 2014 00:00
Search period end: 11 October 2014 00:00
Orbit: 776 x 779 km, 86.4° (Epoch: 30 September)

Date Brightness Start Highest point End Pass type
(mag) Time Alt. Az. Time Alt. Az. Time Alt. Az.
01 Oct 8.4 06:02:50 10° NNE 06:07:13 27° ENE 06:11:34 10° SE visible
01 Oct 9.1 20:41:52 10° WSW 20:45:10 17° WNW 20:48:30 10° NW visible
02 Oct 9.2 05:30:27 10° NE 05:33:22 15° ENE 05:36:17 10° ESE visible
02 Oct 8.2 20:06:49 10° SW 20:11:21 30° W 20:15:55 10° NNW visible
03 Oct 6.4 06:35:51 10° N 06:41:04 71° E 06:46:14 10° S visible
03 Oct 6.9 19:32:35 10° SSW 19:37:40 55° W 19:42:48 10° N visible
04 Oct 7.6 06:02:35 10° NNE 06:07:26 38° E 06:12:15 10° SSE visible
04 Oct 9.4 20:43:47 10° W 20:45:30 12° WNW 20:47:14 10° NW visible
05 Oct 8.6 05:29:44 10° NNE 05:33:40 21° ENE 05:37:35 10° SE visible
05 Oct 8.8 20:07:42 10° SW 20:11:36 21° WNW 20:15:32 10° NNW visible
06 Oct 9.3 04:58:00 10° NE 04:59:46 12° ENE 05:01:31 10° E visible
06 Oct 6.0 06:35:55 10° N 06:41:09 81° W 06:46:21 10° S visible
06 Oct 7.8 19:33:02 10° SSW 19:37:50 38° W 19:42:41 10° NNW visible
07 Oct 6.8 06:02:28 10° N 06:07:36 55° E 06:12:41 10° SSE visible
08 Oct 8.0 05:29:20 10° NNE 05:33:55 30° E 05:38:27 10° SE visible
08 Oct 9.1 20:09:00 10° WSW 20:11:54 15° WNW 20:14:48 10° NW visible
09 Oct 8.8 04:56:45 10° NE 05:00:06 17° ENE 05:03:25 10° ESE visible
09 Oct 6.1 06:36:06 10° NNW 06:41:11 56° W 06:46:15 10° SSW visible
09 Oct 8.5 19:33:42 10° SW 19:38:03 27° WNW 19:42:26 10° NNW visible
10 Oct 6.1 06:02:28 10° N 06:07:43 80° E 06:12:55 10° S visible
